SCP
0 0 0 0 0 0 0 0 0 0 0 0 0 0 0 0 0 0 0 0 0 0 0 0 0 0 0 0 0 0 0 0
0 0 0 0 0 0 0 0 0 0 0 0 0 0 0 0 0 0 0 0 0 0 0 0 0 0 0 0 0 0 0 0
0 0 0 0 0 0 0 0 0 0 0 0 0 0 0 0 0 0 0 0 0 0 0 0 0 0 0 0 0 0 0 0
0 0 0 0 0 0 0 0 0 0 0 0 0 0 0 0 0 0 0 0 0 0 0 0 0 0 -0 -0 0 0 0 0
0 0 0 0 0 0 0 0 0 0 0 0 0 0 0 0 0 0 0 0 0 0 0 0 0 0 -0 -0 -0 0 0 0
0 0 0 0 0 0 0 0 0 0 0 0 0 0 0 0 0 0 0 0 0 0 0 0 0 0 -0 -0 0 0 0 0
0 0 0 0 0 0 0 0 0 0 0 0 0 0 0 0 0 0 0 0 0 0 0 -0 0 0 -0 -0 0 0 0 -0
0 0 0 0 0 0 0 0 0 0 0 0 0 0 0 0 0 0 0 0 0 0 -0 0 -0 -0 -0 0 0 0 0 0
0 0 0 0 0 0 0 0 0 0 0 0 0 0 0 0 0 0 0 0 -0 0 0 -0 -0 0 0 0 0 0 0 0
0 0 0 0 0 0 0 0 0 0 0 0 0 0 0 0 0 0 -0 -0 0 0 0 0 0 0 0 0 0 -0 0 0
0 0 0 0 0 0 0 0 0 0 0 0 0 0 0 0 0 0 0 0 0 0 0 0 0 0 0 0 0 0 0 0
0 0 0 0 0 0 0 0 0 0 0 0 0 0 0 0 0 0 0 0 0 0 0 0 0 0 0 0 0 0 0 0
0 0 0 0 0 0 0 0 0 0 0 0 0 0 0 0 0 0 0 0 0 0 0 0 0 0 0 0 0 0 0 0
0 0 0 0 0 0 0 0 0 0 0 0 0 0 0 0 0 0 0 0 0 0 0 0 0 0 0 0 0 0 0 0
0 0 0 0 0 0 0 0 0 0 0 0 0 0 0 0 0 0 0 0 0 0 0 0 0 0 0 0 0 0 0 0
0 0 0 0 0 0 0 0 0 0 0 0 0 0 0 0 0 0 0 0 0 0 0 0 0 0 0 0 0 0 0 0
0 0 0 0 0 0 0 0 0 0 0 0 0 0 0 0 0 0 0 0 0 0 0 0 0 0 0 0 0 0 0 0
0 0 0 0 0 0 0 0 0 0 0 0 0 0 0 0 0 0 0 0 0 0 0 0 0 0 0 0 0 0 0 0
0 0 0 0 0 0 0 0 0 0 0 0 0 0 0 0 0 0 0 0 0 0 0 0 0 0 0 0 0 0 0 0
0 0 0 0 0 0 0 0 0 0 0 0 0 0 0 0 0 0 0 0 0 0 0 0 0 0 0 0 0 0 0 0
Wind_Speed_500mb
17 12 16 19 23 29 30 32 35 40 44 48 52 55 57 42 34 41 45 55 42 35 36 36 35 30 24 20 18 20 8 16
14 12 18 22 27 32 33 33 36 41 44 48 54 59 45 31 34 42 51 45 35 33 32 32 28 26 20 13 14 6 8 10
13 16 24 29 32 33 32 33 36 42 44 50 57 52 34 32 37 43 49 36 33 30 29 24 22 23 18 8 8 6 7 11
20 27 32 37 40 34 34 33 38 41 45 55 56 41 30 34 40 50 41 35 28 24 24 20 16 17 11 4 3 5 8 7
32 40 43 46 41 37 32 34 39 42 52 57 46 32 31 38 45 44 38 31 23 23 21 15 11 12 8 4 4 9 11 10
39 49 56 55 46 37 34 34 37 46 54 49 35 27 35 40 45 39 35 27 21 19 15 8 10 9 7 9 12 15 15 15
47 54 60 54 46 40 31 32 41 49 50 39 27 30 37 46 38 41 29 25 14 8 6 9 10 13 14 16 12 13 14 18
40 45 45 46 46 37 29 33 40 50 42 30 28 36 44 36 41 34 19 15 7 8 7 9 10 11 11 10 10 16 16 15
36 40 41 45 42 32 27 33 47 45 34 26 32 40 31 37 35 24 21 12 6 9 8 13 15 14 17 15 18 17 21 18
47 51 51 41 33 26 26 36 43 37 27 27 34 30 34 37 29 23 21 14 11 14 12 18 18 19 21 19 23 24 20 23
51 50 47 40 27 21 26 38 38 30 24 30 32 25 36 32 31 27 21 16 18 12 14 21 21 20 17 20 20 15 18 19
52 50 45 31 21 18 30 34 32 25 27 30 21 23 28 32 30 29 25 22 15 18 17 18 19 20 17 21 20 18 18 22
49 48 39 20 13 20 28 31 25 23 26 20 20 18 22 26 28 29 29 24 15 12 15 17 18 20 20 17 17 17 19 28
51 44 27 11 12 21 24 27 19 23 20 15 21 17 19 21 19 22 22 21 18 20 18 15 12 11 14 15 17 19 22 29
47 32 13 5 14 17 24 22 16 20 16 12 20 19 19 18 16 16 17 17 17 19 17 15 13 14 16 16 20 19 23 26
38 20 5 10 13 17 22 16 14 17 13 10 17 19 23 21 18 18 17 17 21 23 19 17 18 19 17 18 19 22 24 21
28 11 8 14 13 19 20 10 12 13 12 8 13 15 21 23 23 25 26 25 29 27 24 24 24 20 20 22 28 26 24 28
18 9 14 13 14 16 16 6 9 11 11 8 10 13 18 22 23 26 29 27 27 23 23 22 19 18 21 31 30 30 29 28
10 5 10 10 12 14 13 4 6 8 9 6 9 12 18 24 25 28 22 20 22 16 15 15 18 21 25 30 30 27 24 22
5 8 7 9 8 12 11 2 2 7 8 3 10 13 16 16 12 12 10 9 16 21 15 17 21 21 24 25 26 24 23 22
Wind_Direction_500mb
218 223 265 278 283 280 290 297 311 319 321 325 327 324 324 320 320 317 315 320 317 320 325 326 334 322 322 324 308 311 310 290
202 268 282 281 278 278 283 298 311 317 321 323 323 323 322 321 323 320 318 321 322 327 326 327 333 322 321 313 332 320 310 315
241 282 288 284 278 277 286 299 311 315 319 322 323 325 322 317 315 317 322 321 321 327 328 328 334 338 328 322 342 24 357 348
275 298 288 290 280 277 282 298 311 316 322 324 325 327 321 315 316 324 325 328 326 329 329 330 350 340 358 15 84 6 17 9
287 299 294 293 286 280 289 305 312 319 323 325 326 327 319 317 324 327 327 332 332 338 335 339 3 348 348 110 69 31 36 30
302 307 303 296 287 283 292 304 317 324 323 328 330 322 319 325 332 335 343 346 342 341 349 60 22 1 55 109 72 52 57 72
318 312 308 305 292 289 290 307 320 324 329 336 332 324 328 332 337 339 338 349 346 1 83 75 53 70 88 93 87 86 92 75
348 350 345 324 299 289 296 313 325 333 338 340 332 333 333 337 342 344 345 342 24 76 99 95 78 75 77 92 95 84 91 83
340 342 343 331 301 289 297 321 333 340 343 341 339 338 344 346 346 359 358 12 87 102 94 91 86 79 84 95 83 70 99 89
341 336 332 312 287 282 305 330 341 346 347 347 344 351 358 351 7 16 20 34 97 97 94 100 89 83 87 90 86 81 79 89
338 336 326 303 288 294 323 338 349 354 355 347 351 10 1 11 29 28 35 45 83 79 100 108 94 88 91 92 79 76 75 92
333 330 319 304 288 308 326 346 354 2 355 355 15 13 22 34 40 41 56 76 70 87 103 108 97 98 91 80 77 72 76 98
334 327 320 299 297 320 335 354 1 0 2 17 26 28 36 47 51 49 52 66 75 87 107 102 105 96 101 90 82 72 81 105
334 328 327 304 312 326 346 360 3 4 5 35 30 42 47 52 62 54 66 62 67 93 98 89 105 112 95 83 92 100 106 110
335 335 339 313 323 337 355 0 8 8 17 52 39 46 48 56 60 64 69 72 82 92 88 89 88 97 104 81 105 107 104 114
337 343 12 331 335 350 359 1 18 12 22 76 49 48 54 64 64 71 79 88 94 87 83 92 87 101 100 100 104 121 120 112
344 5 2 339 346 353 359 9 28 21 23 100 57 61 63 69 77 76 81 90 94 81 82 96 100 96 104 107 114 115 111 109
352 19 346 345 345 357 356 22 34 26 28 106 76 82 77 80 87 91 95 86 82 76 74 80 92 96 114 117 114 113 107 98
325 299 323 338 340 354 355 26 40 30 35 101 108 111 107 101 98 91 95 81 62 59 53 71 94 117 117 118 112 110 110 103
284 295 294 319 331 352 359 26 72 23 31 55 143 146 141 127 111 102 100 82 91 79 88 98 107 131 134 131 120 110 109 102
Wind_Speed_850mb
17 12 16 19 23 29 30 32 35 40 44 48 52 55 57 42 34 41 45 55 42 35 36 36 35 30 24 20 18 20 8 16
14 12 18 22 27 32 33 33 36 41 44 48 54 59 45 31 34 42 51 45 35 33 32 32 28 26 20 13 14 6 8 10
13 16 24 29 32 33 32 33 36 42 44 50 57 52 34 32 37 43 49 36 33 30 29 24 22 23 18 8 8 6 7 11
20 27 32 37 40 34 34 33 38 41 45 55 56 41 30 34 40 50 41 35 28 24 24 20 16 17 11 4 3 5 8 7
32 40 43 46 41 37 32 34 39 42 52 57 46 32 31 38 45 44 38 31 23 23 21 15 11 12 8 4 4 9 11 10
39 49 56 55 46 37 34 34 37 46 54 49 35 27 35 40 45 39 35 27 21 19 15 8 10 9 7 9 12 15 15 15
47 54 60 54 46 40 31 32 41 49 50 39 27 30 37 46 38 41 29 25 14 8 6 9 10 13 14 16 12 13 14 18
40 45 45 46 46 37 29 33 40 50 42 30 28 36 44 36 41 34 19 15 7 8 7 9 10 11 11 10 10 16 16 15
36 40 41 45 42 32 27 33 47 45 34 26 32 40 31 37 35 24 21 12 6 9 8 13 15 14 17 15 18 17 21 18
47 51 51 41 33 26 26 36 43 37 27 27 34 30 34 37 29 23 21 14 11 14 12 18 18 19 21 19 23 24 20 23
51 50 47 40 27 21 26 38 38 30 24 30 32 25 36 32 31 27 21 16 18 12 14 21 21 20 17 20 20 15 18 19
52 50 45 31 21 18 30 34 32 25 27 30 21 23 28 32 30 29 25 22 15 18 17 18 19 20 17 21 20 18 18 22
49 48 39 20 13 20 28 31 25 23 26 20 20 18 22 26 28 29 29 24 15 12 15 17 18 20 20 17 17 17 19 28
51 44 27 11 12 21 24 27 19 23 20 15 21 17 19 21 19 22 22 21 18 20 18 15 12 11 14 15 17 19 22 29
47 32 13 5 14 17 24 22 16 20 16 12 20 19 19 18 16 16 17 17 17 19 17 15 13 14 16 16 20 19 23 26
38 20 5 10 13 17 22 16 14 17 13 10 17 19 23 21 18 18 17 17 21 23 19 17 18 19 17 18 19 22 24 21
28 11 8 14 13 19 20 10 12 13 12 8 13 15 21 23 23 25 26 25 29 27 24 24 24 20 20 22 28 26 24 28
18 9 14 13 14 16 16 6 9 11 11 8 10 13 18 22 23 26 29 27 27 23 23 22 19 18 21 31 30 30 29 28
10 5 10 10 12 14 13 4 6 8 9 6 9 12 18 24 25 28 22 20 22 16 15 15 18 21 25 30 30 27 24 22
5 8 7 9 8 12 11 2 2 7 8 3 10 13 16 16 12 12 10 9 16 21 15 17 21 21 24 25 26 24 23 22
Wind_Direction_850mb
218 223 265 278 283 280 290 297 311 319 321 325 327 324 324 320 320 317 315 320 317 320 325 326 334 322 322 324 308 311 310 290
202 268 282 281 278 278 283 298 311 317 321 323 323 323 322 321 323 320 318 321 322 327 326 327 333 322 321 313 332 320 310 315
241 282 288 284 278 277 286 299 311 315 319 322 323 325 322 317 315 317 322 321 321 327 328 328 334 338 328 322 342 24 357 348
275 298 288 290 280 277 282 298 311 316 322 324 325 327 321 315 316 324 325 328 326 329 329 330 350 340 358 15 84 6 17 9
287 299 294 293 286 280 289 305 312 319 323 325 326 327 319 317 324 327 327 332 332 338 335 339 3 348 348 110 69 31 36 30
302 307 303 296 287 283 292 304 317 324 323 328 330 322 319 325 332 335 343 346 342 341 349 60 22 1 55 109 72 52 57 72
318 312 308 305 292 289 290 307 320 324 329 336 332 324 328 332 337 339 338 349 346 1 83 75 53 70 88 93 87 86 92 75
348 350 345 324 299 289 296 313 325 333 338 340 332 333 333 337 342 344 345 342 24 76 99 95 78 75 77 92 95 84 91 83
340 342 343 331 301 289 297 321 333 340 343 341 339 338 344 346 346 359 358 12 87 102 94 91 86 79 84 95 83 70 99 89
341 336 332 312 287 282 305 330 341 346 347 347 344 351 358 351 7 16 20 34 97 97 94 100 89 83 87 90 86 81 79 89
338 336 326 303 288 294 323 338 349 354 355 347 351 10 1 11 29 28 35 45 83 79 100 108 94 88 91 92 79 76 75 92
333 330 319 304 288 308 326 346 354 2 355 355 15 13 22 34 40 41 56 76 70 87 103 108 97 98 91 80 77 72 76 98
334 327 320 299 297 320 335 354 1 0 2 17 26 28 36 47 51 49 52 66 75 87 107 102 105 96 101 90 82 72 81 105
334 328 327 304 312 326 346 360 3 4 5 35 30 42 47 52 62 54 66 62 67 93 98 89 105 112 95 83 92 100 106 110
335 335 339 313 323 337 355 0 8 8 17 52 39 46 48 56 60 64 69 72 82 92 88 89 88 97 104 81 105 107 104 114
337 343 12 331 335 350 359 1 18 12 22 76 49 48 54 64 64 71 79 88 94 87 83 92 87 101 100 100 104 121 120 112
344 5 2 339 346 353 359 9 28 21 23 100 57 61 63 69 77 76 81 90 94 81 82 96 100 96 104 107 114 115 111 109
352 19 346 345 345 357 356 22 34 26 28 106 76 82 77 80 87 91 95 86 82 76 74 80 92 96 114 117 114 113 107 98
325 299 323 338 340 354 355 26 40 30 35 101 108 111 107 101 98 91 95 81 62 59 53 71 94 117 117 118 112 110 110 103
284 295 294 319 331 352 359 26 72 23 31 55 143 146 141 127 111 102 100 82 91 79 88 98 107 131 134 131 120 110 109 102